{"data":{"norad_id":46505,"intl_designator":"2020-068V","name":"NETSAT-3","alt_names":[],"object_type":"PAYLOAD","status":"ACTIVE","operator":null,"country":"GER","launch_date":"2020-09-28","launch_site_code":"PLMSC","launch_vehicle":null,"mission":null,"orbit_class":"UNKNOWN","rcs_meters":null,"size_class":null,"mass_kg":null,"dimensions":null,"purposes":["tech_demo"],"wikipedia_slug":null,"has_3d_model":false,"image_url":null,"decayed_at":null,"tle_current":{"epoch":"2026-09-19T23:57:42.744096Z","epoch_age_seconds":57820,"freshness":"FRESH","line1":"1 46505U 20068V   26262.99841139  .00014028  00000+0  29255-3 0  9998","line2":"2 46505  97.8671 277.1899 0004847  22.5096 337.6363 15.45678643330310","mean_motion":15.45678643,"eccentricity":0.0004847,"inclination_deg":97.8671,"raan_deg":277.1899,"arg_perigee_deg":22.5096,"mean_anomaly_deg":337.6363,"bstar":0.00029255,"rev_number":33031,"period_min":93.162961558757,"perigee_km":426.08513783989,"apogee_km":432.68434941817,"semimajor_km":6807.521743629,"source":"CELESTRAK","updated_at":"2026-09-20T09:00:48.034476Z"}}}